| time (UTC) | temp F | wind direction | speed knots | gust knots | rain 1hr in | rain 24hr in | rain mn in | humidity % | barometer mb |
| 20260510120557 | 68 | 142 | 1.7 | 3.5 | 0.00 | 0.00 | 0.00 | 97 | 1012.1 |
| 20260510120058 | 68 | 161 | 2.6 | 3.5 | 0.00 | 0.00 | 0.00 | 97 | 1011.9 |
| 20260510115552 | 68 | 143 | 0.9 | 3.5 | 0.00 | 0.00 | 0.00 | 97 | 1011.8 |
| 20260510115055 | 67 | 0 | 0.0 | 0.0 | 0.00 | 0.00 | 0.00 | 96 | 1011.7 |
| 20260510114557 | 67 | 0 | 0.0 | 0.0 | 0.00 | 0.00 | 0.00 | 96 | 1011.6 |
| 20260510114055 | 67 | 0 | 0.0 | 1.7 | 0.00 | 0.00 | 0.00 | 96 | 1011.6 |
| 20260510113556 | 67 | 0 | 0.0 | 2.6 | 0.00 | 0.00 | 0.00 | 96 | 1011.6 |
| 20260510113056 | 67 | 179 | 0.9 | 2.6 | 0.00 | 0.00 | 0.00 | 96 | 1011.4 |
| 20260510112552 | 67 | 201 | 1.7 | 2.6 | 0.00 | 0.00 | 0.00 | 96 | 1011.3 |
| 20260510112054 | 67 | 167 | 1.7 | 3.5 | 0.00 | 0.00 | 0.00 | 96 | 1011.3 |
| 20260510111556 | 67 | 188 | 2.6 | 3.5 | 0.00 | 0.00 | 0.00 | 96 | 1011.3 |
| 20260510111052 | 67 | 200 | 2.6 | 3.5 | 0.00 | 0.00 | 0.00 | 96 | 1011.3 |
| 20260510110553 | 67 | 192 | 2.6 | 3.5 | 0.00 | 0.00 | 0.00 | 96 | 1011.3 |
| 20260510110055 | 67 | 162 | 2.6 | 3.5 | 0.00 | 0.00 | 0.00 | 96 | 1011.3 |
| 20260510105555 | 67 | 164 | 1.7 | 3.5 | 0.00 | 0.00 | 0.00 | 96 | 1011.4 |
| 20260510105053 | 67 | 172 | 1.7 | 3.5 | 0.00 | 0.00 | 0.00 | 95 | 1011.3 |
| 20260510104555 | 68 | 153 | 1.7 | 2.6 | 0.00 | 0.00 | 0.00 | 95 | 1011.3 |
| 20260510104052 | 68 | 188 | 2.6 | 3.5 | 0.00 | 0.00 | 0.00 | 95 | 1011.3 |
| 20260510103552 | 68 | 162 | 1.7 | 4.3 | 0.00 | 0.00 | 0.00 | 95 | 1011.3 |
| 20260510103100 | 68 | 157 | 2.6 | 4.3 | 0.00 | 0.00 | 0.00 | 95 | 1011.3 |
| 20260510102555 | 68 | 161 | 3.5 | 5.2 | 0.00 | 0.00 | 0.00 | 95 | 1011.3 |
| 20260510102051 | 68 | 162 | 3.5 | 5.2 | 0.00 | 0.00 | 0.00 | 95 | 1011.3 |
| 20260510101607 | 68 | 167 | 3.5 | 4.3 | 0.00 | 0.00 | 0.00 | 95 | 1011.2 |
| 20260510101053 | 68 | 164 | 3.5 | 4.3 | 0.00 | 0.00 | 0.00 | 95 | 1011.2 |
| 20260510100555 | 68 | 202 | 3.5 | 5.2 | 0.00 | 0.00 | 0.00 | 95 | 1011.2 |
| 20260510100057 | 68 | 165 | 3.5 | 6.1 | 0.00 | 0.00 | 0.00 | 95 | 1011.3 |
| 20260510095553 | 68 | 165 | 3.5 | 6.1 | 0.00 | 0.00 | 0.00 | 95 | 1011.3 |
| 20260510095052 | 68 | 162 | 4.3 | 6.1 | 0.00 | 0.00 | 0.00 | 95 | 1011.3 |
| 20260510094554 | 68 | 172 | 2.6 | 5.2 | 0.00 | 0.00 | 0.00 | 94 | 1011.4 |
| 20260510094052 | 68 | 153 | 3.5 | 4.3 | 0.00 | 0.00 | 0.00 | 94 | 1011.4 |
| 20260510093553 | 68 | 162 | 3.5 | 4.3 | 0.00 | 0.00 | 0.00 | 94 | 1011.2 |
| 20260510093053 | 68 | 157 | 3.5 | 4.3 | 0.00 | 0.00 | 0.00 | 94 | 1011.3 |
| 20260510092553 | 68 | 159 | 2.6 | 3.5 | 0.00 | 0.00 | 0.00 | 94 | 1011.4 |
| 20260510092052 | 68 | 155 | 2.6 | 4.3 | 0.00 | 0.00 | 0.00 | 94 | 1011.3 |
| 20260510091555 | 68 | 156 | 2.6 | 4.3 | 0.00 | 0.00 | 0.00 | 94 | 1011.3 |
| 20260510091052 | 68 | 157 | 2.6 | 3.5 | 0.00 | 0.00 | 0.00 | 94 | 1011.3 |
| 20260510090555 | 68 | 158 | 2.6 | 3.5 | 0.00 | 0.00 | 0.00 | 94 | 1011.3 |
| 20260510090054 | 68 | 159 | 2.6 | 3.5 | 0.00 | 0.00 | 0.00 | 94 | 1011.4 |
| 20260510085555 | 68 | 141 | 2.6 | 4.3 | 0.00 | 0.00 | 0.00 | 94 | 1011.5 |
| 20260510085055 | 68 | 148 | 3.5 | 4.3 | 0.00 | 0.00 | 0.00 | 94 | 1011.4 |
| 20260510084558 | 68 | 171 | 3.5 | 4.3 | 0.00 | 0.00 | 0.00 | 94 | 1011.3 |
| 20260510084053 | 68 | 157 | 3.5 | 4.3 | 0.00 | 0.00 | 0.00 | 93 | 1011.3 |
| 20260510083555 | 69 | 160 | 3.5 | 4.3 | 0.00 | 0.00 | 0.00 | 93 | 1011.4 |
| 20260510083055 | 69 | 153 | 3.5 | 4.3 | 0.00 | 0.00 | 0.00 | 93 | 1011.4 |
| 20260510082552 | 69 | 140 | 3.5 | 4.3 | 0.00 | 0.00 | 0.00 | 93 | 1011.4 |
| 20260510082053 | 69 | 149 | 3.5 | 4.3 | 0.00 | 0.00 | 0.00 | 93 | 1011.5 |
| 20260510081600 | 69 | 141 | 2.6 | 4.3 | 0.00 | 0.00 | 0.00 | 92 | 1011.5 |
| 20260510081053 | 69 | 146 | 2.6 | 4.3 | 0.00 | 0.00 | 0.00 | 92 | 1011.4 |
| 20260510080556 | 69 | 142 | 2.6 | 4.3 | 0.00 | 0.00 | 0.00 | 92 | 1011.5 |
| 20260510080056 | 70 | 126 | 3.5 | 4.3 | 0.00 | 0.00 | 0.00 | 92 | 1011.6 |
| 20260510075555 | 69 | 121 | 2.6 | 4.3 | 0.00 | 0.00 | 0.00 | 92 | 1011.6 |
| 20260510075056 | 69 | 134 | 2.6 | 4.3 | 0.00 | 0.00 | 0.00 | 91 | 1011.5 |
| 20260510074556 | 69 | 146 | 2.6 | 4.3 | 0.00 | 0.00 | 0.00 | 91 | 1011.4 |
| 20260510074053 | 70 | 131 | 2.6 | 4.3 | 0.00 | 0.00 | 0.00 | 91 | 1011.4 |
| 20260510073552 | 70 | 121 | 2.6 | 3.5 | 0.00 | 0.00 | 0.00 | 91 | 1011.4 |
| 20260510073104 | 70 | 125 | 1.7 | 2.6 | 0.00 | 0.00 | 0.00 | 91 | 1011.4 |
| 20260510072553 | 70 | 146 | 1.7 | 3.5 | 0.00 | 0.00 | 0.00 | 91 | 1011.4 |
| 20260510072055 | 70 | 143 | 2.6 | 4.3 | 0.00 | 0.00 | 0.00 | 90 | 1011.4 |
| 20260510071558 | 70 | 141 | 2.6 | 5.2 | 0.00 | 0.00 | 0.00 | 90 | 1011.5 |
| 20260510071052 | 70 | 140 | 3.5 | 5.2 | 0.00 | 0.00 | 0.00 | 90 | 1011.5 |
| 20260510070552 | 70 | 146 | 3.5 | 4.3 | 0.00 | 0.00 | 0.00 | 90 | 1011.4 |
| 20260510070056 | 70 | 143 | 4.3 | 4.3 | 0.00 | 0.00 | 0.00 | 90 | 1011.4 |
| 20260510065553 | 70 | 145 | 3.5 | 4.3 | 0.00 | 0.00 | 0.00 | 90 | 1011.5 |
| 20260510065053 | 70 | 146 | 2.6 | 4.3 | 0.00 | 0.00 | 0.00 | 89 | 1011.6 |
| 20260510064554 | 71 | 144 | 2.6 | 3.5 | 0.00 | 0.00 | 0.00 | 89 | 1011.7 |
| 20260510064052 | 71 | 143 | 2.6 | 4.3 | 0.00 | 0.00 | 0.00 | 89 | 1011.8 |
| 20260510063552 | 71 | 148 | 2.6 | 4.3 | 0.00 | 0.00 | 0.00 | 89 | 1011.7 |
| 20260510063058 | 71 | 143 | 2.6 | 3.5 | 0.00 | 0.00 | 0.00 | 89 | 1011.8 |
| 20260510062553 | 71 | 153 | 2.6 | 3.5 | 0.00 | 0.00 | 0.00 | 89 | 1011.8 |
| 20260510062053 | 71 | 153 | 2.6 | 4.3 | 0.00 | 0.00 | 0.00 | 89 | 1011.8 |
| 20260510061601 | 71 | 150 | 3.5 | 5.2 | 0.00 | 0.00 | 0.00 | 89 | 1011.9 |
| 20260510061057 | 71 | 150 | 3.5 | 5.2 | 0.00 | 0.00 | 0.00 | 89 | 1011.9 |
| 20260510060553 | 72 | 149 | 3.5 | 4.3 | 0.00 | 0.00 | 0.00 | 89 | 1011.9 |
| 20260510060055 | 72 | 157 | 2.6 | 3.5 | 0.00 | 0.00 | 0.00 | 88 | 1011.7 |
| 20260510055552 | 72 | 163 | 2.6 | 3.5 | 0.00 | 0.00 | 0.00 | 88 | 1011.8 |
| 20260510055053 | 72 | 155 | 2.6 | 4.3 | 0.00 | 0.00 | 0.00 | 88 | 1011.8 |
| 20260510054606 | 72 | 130 | 2.6 | 4.3 | 0.00 | 0.00 | 0.00 | 87 | 1011.8 |
| 20260510054053 | 73 | 136 | 3.5 | 7.0 | 0.00 | 0.00 | 0.00 | 87 | 1011.9 |
| 20260510053552 | 73 | 134 | 3.5 | 8.7 | 0.00 | 0.00 | 0.00 | 87 | 1011.8 |
| 20260510053055 | 73 | 130 | 5.2 | 8.7 | 0.00 | 0.00 | 0.00 | 87 | 1011.6 |
| 20260510052552 | 73 | 141 | 5.2 | 9.6 | 0.00 | 0.00 | 0.00 | 87 | 1011.7 |
| 20260510052053 | 73 | 128 | 6.1 | 9.6 | 0.00 | 0.00 | 0.00 | 87 | 1011.6 |
| 20260510051601 | 73 | 117 | 6.1 | 8.7 | 0.00 | 0.00 | 0.00 | 87 | 1011.5 |
| 20260510051056 | 73 | 120 | 5.2 | 7.8 | 0.00 | 0.00 | 0.00 | 87 | 1011.5 |
| 20260510050552 | 73 | 129 | 4.3 | 7.8 | 0.00 | 0.00 | 0.00 | 87 | 1011.3 |
| 20260510050056 | 73 | 128 | 4.3 | 7.0 | 0.00 | 0.00 | 0.00 | 87 | 1011.3 |
| 20260510045555 | 73 | 131 | 4.3 | 7.0 | 0.00 | 0.00 | 0.00 | 87 | 1011.2 |
| 20260510045055 | 73 | 133 | 3.5 | 5.2 | 0.00 | 0.00 | 0.00 | 88 | 1011.0 |
| 20260510044555 | 73 | 158 | 1.7 | 4.3 | 0.00 | 0.00 | 0.00 | 87 | 1011.1 |
| 20260510044052 | 73 | 141 | 2.6 | 4.3 | 0.00 | 0.00 | 0.00 | 87 | 1011.1 |
| 20260510043552 | 73 | 124 | 2.6 | 5.2 | 0.00 | 0.00 | 0.00 | 87 | 1011.1 |
| 20260510043057 | 73 | 131 | 2.6 | 5.2 | 0.00 | 0.00 | 0.00 | 87 | 1011.1 |
| 20260510042602 | 73 | 136 | 3.5 | 7.0 | 0.00 | 0.00 | 0.00 | 86 | 1011.1 |
| 20260510042056 | 73 | 133 | 3.5 | 7.0 | 0.00 | 0.00 | 0.00 | 86 | 1011.2 |
| 20260510041634 | 73 | 134 | 4.3 | 6.1 | 0.00 | 0.00 | 0.00 | 86 | 1011.2 |
| 20260510041054 | 73 | 126 | 3.5 | 5.2 | 0.00 | 0.00 | 0.00 | 86 | 1011.1 |
| 20260510040555 | 73 | 141 | 2.6 | 4.3 | 0.00 | 0.00 | 0.00 | 86 | 1011.1 |
| 20260510040053 | 73 | 155 | 3.5 | 4.3 | 0.00 | 0.00 | 0.00 | 85 | 1011.1 |
| 20260510035554 | 73 | 131 | 2.6 | 6.1 | 0.00 | 0.00 | 0.00 | 85 | 1011.0 |
| 20260510035056 | 74 | 143 | 3.5 | 6.1 | 0.00 | 0.00 | 0.00 | 85 | 1010.9 |
| 20260510034601 | 74 | 148 | 4.3 | 6.1 | 0.00 | 0.00 | 0.00 | 84 | 1010.9 |
| 20260510034059 | 74 | 138 | 5.2 | 7.8 | 0.00 | 0.00 | 0.00 | 84 | 1010.8 |
| 20260510033556 | 74 | 114 | 5.2 | 7.8 | 0.00 | 0.00 | 0.00 | 84 | 1010.7 |
| 20260510033111 | 74 | 113 | 4.3 | 7.8 | 0.00 | 0.00 | 0.00 | 84 | 1010.6 |
| 20260510032555 | 74 | 122 | 3.5 | 6.1 | 0.00 | 0.00 | 0.00 | 84 | 1010.7 |
| 20260510032055 | 74 | 86 | 4.3 | 7.0 | 0.00 | 0.00 | 0.00 | 83 | 1010.5 |
| 20260510031603 | 74 | 102 | 4.3 | 7.0 | 0.00 | 0.00 | 0.00 | 84 | 1010.5 |
| 20260510031055 | 74 | 105 | 3.5 | 7.0 | 0.00 | 0.00 | 0.00 | 84 | 1010.6 |
| 20260510030556 | 73 | 94 | 3.5 | 5.2 | 0.00 | 0.00 | 0.00 | 84 | 1010.4 |
| 20260510030057 | 73 | 94 | 2.6 | 4.3 | 0.00 | 0.00 | 0.00 | 85 | 1010.2 |
| 20260510025554 | 73 | 94 | 2.6 | 4.3 | 0.00 | 0.00 | 0.00 | 86 | 1010.1 |
| 20260510025059 | 73 | 90 | 2.6 | 4.3 | 0.00 | 0.00 | 0.00 | 87 | 1010.2 |
| 20260510024609 | 73 | 80 | 2.6 | 4.3 | 0.00 | 0.00 | 0.00 | 87 | 1010.1 |
| 20260510024055 | 72 | 76 | 2.6 | 3.5 | 0.00 | 0.00 | 0.00 | 87 | 1010.1 |
| 20260510023555 | 72 | 77 | 2.6 | 5.2 | 0.00 | 0.00 | 0.00 | 88 | 1010.0 |
| 20260510023100 | 72 | 79 | 2.6 | 5.2 | 0.00 | 0.00 | 0.00 | 87 | 1010.0 |
| 20260510022555 | 72 | 70 | 3.5 | 5.2 | 0.00 | 0.00 | 0.00 | 88 | 1009.9 |
| 20260510022054 | 72 | 62 | 1.7 | 2.6 | 0.00 | 0.00 | 0.00 | 88 | 1009.9 |
| 20260510021553 | 71 | 71 | 0.0 | 0.0 | 0.00 | 0.00 | 0.00 | 88 | 1009.8 |
| 20260510021054 | 71 | 0 | 0.0 | 0.0 | 0.00 | 0.00 | 0.00 | 88 | 1009.7 |
| 20260510020555 | 71 | 0 | 0.0 | 0.0 | 0.00 | 0.00 | 0.00 | 88 | 1009.6 |
| 20260510020055 | 71 | 0 | 0.0 | 0.0 | 0.00 | 0.00 | 0.00 | 91 | 1009.6 |
| 20260510015555 | 71 | 0 | 0.0 | 0.0 | 0.00 | 0.00 | 0.00 | 89 | 1009.4 |
| 20260510015054 | 71 | 0 | 0.0 | 1.7 | 0.00 | 0.00 | 0.00 | 90 | 1009.2 |
| 20260510014613 | 71 | 0 | 0.0 | 1.7 | 0.00 | 0.00 | 0.00 | 90 | 1009.3 |
| 20260510014055 | 71 | 0 | 0.9 | 3.5 | 0.00 | 0.00 | 0.00 | 91 | 1009.2 |
| 20260510013556 | 70 | 356 | 0.0 | 3.5 | 0.00 | 0.00 | 0.00 | 93 | 1009.2 |
| 20260510013104 | 70 | 266 | 1.7 | 3.5 | 0.00 | 0.00 | 0.00 | 95 | 1009.2 |
| 20260510012555 | 70 | 281 | 0.0 | 4.3 | 0.00 | 0.00 | 0.00 | 96 | 1009.1 |
| 20260510012055 | 70 | 77 | 2.6 | 4.3 | 0.00 | 0.00 | 0.00 | 96 | 1009.0 |
| 20260510011554 | 70 | 81 | 3.5 | 4.3 | 0.00 | 0.00 | 0.00 | 96 | 1008.9 |
| 20260510011056 | 69 | 81 | 1.7 | 3.5 | 0.00 | 0.00 | 0.00 | 96 | 1008.8 |
| 20260510010552 | 69 | 65 | 0.9 | 3.5 | 0.00 | 0.00 | 0.00 | 96 | 1008.9 |
| 20260510010055 | 69 | 0 | 0.9 | 3.5 | 0.00 | 0.00 | 0.00 | 96 | 1008.8 |
| 20260510005553 | 70 | 78 | 0.0 | 0.0 | 0.00 | 0.00 | 0.00 | 96 | 1008.8 |
| 20260510005053 | 69 | 0 | 0.0 | 0.0 | 0.00 | 0.00 | 0.00 | 96 | 1008.7 |
| 20260510004603 | 69 | 0 | 0.0 | 0.0 | 0.00 | 0.00 | 0.00 | 96 | 1008.7 |
| 20260510004052 | 69 | 0 | 0.0 | 1.7 | 0.00 | 0.00 | 0.00 | 95 | 1008.8 |
| 20260510003553 | 69 | 0 | 0.0 | 3.5 | 0.00 | 0.00 | 0.00 | 96 | 1008.8 |
| 20260510003054 | 69 | 0 | 0.9 | 7.0 | 0.00 | 0.00 | 0.00 | 96 | 1008.8 |
| 20260510002552 | 69 | 181 | 2.6 | 8.7 | 0.00 | 0.00 | 0.00 | 95 | 1008.8 |
| 20260510002052 | 68 | 203 | 5.2 | 10.4 | 0.00 | 0.00 | 0.00 | 95 | 1008.8 |
| 20260510001555 | 68 | 197 | 5.2 | 10.4 | 0.00 | 0.00 | 0.00 | 95 | 1008.8 |
| 20260510001053 | 68 | 249 | 7.0 | 10.4 | 0.00 | 0.00 | 0.00 | 95 | 1008.9 |
| 20260510000556 | 67 | 214 | 4.3 | 7.0 | 0.00 | 0.00 | 0.00 | 96 | 1009.1 |
| 20260510000058 | 67 | 238 | 0.9 | 5.2 | 0.00 | 0.00 | 0.00 | 96 | 1009.3 |
| 20260509235557 | 67 | 271 | 2.6 | 7.0 | 0.00 | 0.00 | 0.00 | 95 | 1009.4 |
| 20260509235057 | 67 | 288 | 3.5 | 8.7 | 0.00 | 0.00 | 0.00 | 93 | 1009.4 |
| 20260509234553 | 67 | 288 | 2.6 | 8.7 | 0.00 | 0.00 | 0.00 | 92 | 1009.5 |
| 20260509234053 | 69 | 274 | 5.2 | 9.6 | 0.00 | 0.00 | 0.00 | 90 | 1009.4 |
| 20260509233553 | 71 | 291 | 5.2 | 14.8 | 0.00 | 0.00 | 0.00 | 88 | 1009.1 |
| 20260509233054 | 73 | 307 | 7.8 | 22.6 | 0.00 | 0.00 | 0.00 | 84 | 1009.5 |
| 20260509232553 | 74 | 314 | 12.2 | 22.6 | 0.00 | 0.00 | 0.00 | 84 | 1008.8 |
| 20260509232054 | 74 | 341 | 10.4 | 15.6 | 0.00 | 0.00 | 0.00 | 81 | 1008.7 |
| 20260509231608 | 76 | 21 | 10.4 | 13.9 | 0.00 | 0.00 | 0.00 | 80 | 1008.7 |
| 20260509231052 | 77 | 43 | 9.6 | 13.9 | 0.00 | 0.00 | 0.00 | 78 | 1008.9 |
| 20260509230554 | 78 | 51 | 8.7 | 15.6 | 0.00 | 0.00 | 0.00 | 71 | 1008.8 |
| 20260509230057 | 79 | 49 | 8.7 | 15.6 | 0.00 | 0.00 | 0.00 | 69 | 1008.6 |
| 20260509225553 | 81 | 46 | 11.3 | 15.6 | 0.00 | 0.00 | 0.00 | 68 | 1008.8 |
| 20260509225056 | 83 | 53 | 7.8 | 13.0 | 0.00 | 0.00 | 0.00 | 65 | 1008.7 |
| 20260509224558 | 85 | 58 | 8.7 | 13.0 | 0.00 | 0.00 | 0.00 | 62 | 1008.5 |
| 20260509224055 | 89 | 77 | 2.6 | 6.1 | 0.00 | 0.00 | 0.00 | 60 | 1008.4 |
| 20260509223553 | 90 | 132 | 2.6 | 5.2 | 0.00 | 0.00 | 0.00 | 59 | 1008.2 |
| 20260509223104 | 89 | 139 | 0.9 | 4.3 | 0.00 | 0.00 | 0.00 | 58 | 1008.1 |
| 20260509222555 | 89 | 160 | 0.9 | 5.2 | 0.00 | 0.00 | 0.00 | 61 | 1008.2 |
| 20260509222053 | 89 | 138 | 3.5 | 5.2 | 0.00 | 0.00 | 0.00 | 59 | 1008.1 |
| 20260509221558 | 90 | 167 | 2.6 | 4.3 | 0.00 | 0.00 | 0.00 | 60 | 1007.9 |
| 20260509221055 | 90 | 113 | 2.6 | 4.3 | 0.00 | 0.00 | 0.00 | 57 | 1008.0 |
| 20260509220555 | 91 | 152 | 2.6 | 4.3 | 0.00 | 0.00 | 0.00 | 56 | 1007.9 |
| 20260509220053 | 91 | 141 | 1.7 | 4.3 | 0.00 | 0.00 | 0.00 | 54 | 1007.9 |
| 20260509215559 | 91 | 148 | 1.7 | 6.1 | 0.00 | 0.00 | 0.00 | 58 | 1008.1 |
| 20260509215054 | 91 | 185 | 2.6 | 6.1 | 0.00 | 0.00 | 0.00 | 57 | 1008.2 |
| 20260509214555 | 90 | 150 | 2.6 | 6.1 | 0.00 | 0.00 | 0.00 | 57 | 1008.1 |
| 20260509214055 | 91 | 179 | 2.6 | 5.2 | 0.00 | 0.00 | 0.00 | 58 | 1008.1 |
| 20260509213554 | 91 | 279 | 2.6 | 5.2 | 0.00 | 0.00 | 0.00 | 53 | 1008.2 |
| 20260509213056 | 91 | 212 | 1.7 | 6.1 | 0.00 | 0.00 | 0.00 | 53 | 1008.3 |
| 20260509212555 | 90 | 164 | 0.9 | 6.1 | 0.00 | 0.00 | 0.00 | 57 | 1008.4 |
| 20260509212055 | 90 | 231 | 3.5 | 7.0 | 0.00 | 0.00 | 0.00 | 56 | 1008.3 |
| 20260509211559 | 90 | 200 | 3.5 | 7.0 | 0.00 | 0.00 | 0.00 | 56 | 1008.5 |
| 20260509211055 | 90 | 233 | 0.9 | 5.2 | 0.00 | 0.00 | 0.00 | 63 | 1008.5 |
| 20260509210555 | 89 | 145 | 2.6 | 5.2 | 0.00 | 0.00 | 0.00 | 57 | 1008.5 |
| 20260509210107 | 89 | 205 | 1.7 | 6.1 | 0.00 | 0.00 | 0.00 | 61 | 1008.6 |
| 20260509205555 | 89 | 219 | 1.7 | 6.1 | 0.00 | 0.00 | 0.00 | 61 | 1008.7 |
| 20260509205055 | 88 | 314 | 2.6 | 5.2 | 0.00 | 0.00 | 0.00 | 61 | 1008.7 |
| 20260509204554 | 88 | 309 | 2.6 | 6.1 | 0.00 | 0.00 | 0.00 | 61 | 1008.9 |
| 20260509204054 | 87 | 296 | 2.6 | 7.8 | 0.00 | 0.00 | 0.00 | 61 | 1008.9 |
| 20260509203558 | 87 | 72 | 3.5 | 7.8 | 0.00 | 0.00 | 0.00 | 58 | 1009.0 |
| 20260509203056 | 88 | 309 | 5.2 | 7.8 | 0.00 | 0.00 | 0.00 | 60 | 1009.2 |
| 20260509202558 | 88 | 293 | 0.9 | 4.3 | 0.00 | 0.00 | 0.00 | 62 | 1009.2 |
| 20260509202055 | 88 | 326 | 1.7 | 5.2 | 0.00 | 0.00 | 0.00 | 61 | 1009.3 |
| 20260509201558 | 88 | 298 | 1.7 | 5.2 | 0.00 | 0.00 | 0.00 | 61 | 1009.2 |
| 20260509201055 | 88 | 300 | 0.9 | 4.3 | 0.00 | 0.00 | 0.00 | 59 | 1009.2 |
| 20260509200554 | 88 | 243 | 2.6 | 6.1 | 0.00 | 0.00 | 0.00 | 64 | 1009.1 |
| 20260509200057 | 87 | 267 | 2.6 | 6.1 | 0.00 | 0.00 | 0.00 | 60 | 1009.0 |
| 20260509195556 | 87 | 298 | 1.7 | 4.3 | 0.00 | 0.00 | 0.00 | 62 | 1009.1 |
| 20260509195055 | 87 | 269 | 1.7 | 6.1 | 0.00 | 0.00 | 0.00 | 64 | 1009.2 |
| 20260509194558 | 87 | 277 | 1.7 | 6.1 | 0.00 | 0.00 | 0.00 | 69 | 1009.2 |
| 20260509194055 | 87 | 275 | 2.6 | 7.0 | 0.00 | 0.00 | 0.00 | 66 | 1009.2 |
| 20260509193556 | 87 | 297 | 1.7 | 7.0 | 0.00 | 0.00 | 0.00 | 69 | 1009.2 |
| 20260509193058 | 88 | 309 | 1.7 | 5.2 | 0.00 | 0.00 | 0.00 | 67 | 1009.3 |
| 20260509192558 | 87 | 183 | 2.6 | 5.2 | 0.00 | 0.00 | 0.00 | 66 | 1009.4 |
| 20260509192056 | 87 | 236 | 2.6 | 4.3 | 0.00 | 0.00 | 0.00 | 65 | 1009.4 |
| 20260509191554 | 87 | 267 | 1.7 | 6.1 | 0.00 | 0.00 | 0.00 | 65 | 1009.6 |
| 20260509191054 | 86 | 284 | 3.5 | 6.1 | 0.00 | 0.00 | 0.00 | 65 | 1009.7 |
| 20260509190552 | 87 | 311 | 0.9 | 4.3 | 0.00 | 0.00 | 0.00 | 66 | 1009.7 |
| 20260509190058 | 87 | 205 | 1.7 | 5.2 | 0.00 | 0.00 | 0.00 | 67 | 1009.7 |
| 20260509185553 | 86 | 319 | 2.6 | 5.2 | 0.00 | 0.00 | 0.00 | 65 | 1009.9 |
| 20260509185056 | 86 | 224 | 2.6 | 7.8 | 0.00 | 0.00 | 0.00 | 68 | 1009.9 |
| 20260509184558 | 86 | 148 | 2.6 | 7.8 | 0.00 | 0.00 | 0.00 | 66 | 1010.0 |
| 20260509184055 | 86 | 219 | 3.5 | 7.8 | 0.00 | 0.00 | 0.00 | 70 | 1010.1 |
| 20260509183556 | 86 | 241 | 0.9 | 5.2 | 0.00 | 0.00 | 0.00 | 69 | 1010.2 |
| 20260509183059 | 85 | 263 | 2.6 | 7.0 | 0.00 | 0.00 | 0.00 | 69 | 1010.3 |
| 20260509182552 | 85 | 309 | 2.6 | 7.0 | 0.00 | 0.00 | 0.00 | 69 | 1010.3 |
| 20260509182052 | 85 | 146 | 2.6 | 7.0 | 0.00 | 0.00 | 0.00 | 71 | 1010.4 |
| 20260509181556 | 85 | 179 | 1.7 | 7.0 | 0.00 | 0.00 | 0.00 | 70 | 1010.4 |
| 20260509181053 | 84 | 238 | 2.6 | 7.0 | 0.00 | 0.00 | 0.00 | 74 | 1010.6 |
| 20260509180556 | 84 | 217 | 2.6 | 7.0 | 0.00 | 0.00 | 0.00 | 74 | 1010.7 |
| 20260509180057 | 84 | 159 | 4.3 | 7.0 | 0.00 | 0.00 | 0.00 | 75 | 1010.8 |
| 20260509175557 | 84 | 197 | 1.7 | 6.1 | 0.00 | 0.00 | 0.00 | 78 | 1010.8 |
| 20260509175056 | 84 | 242 | 1.7 | 6.1 | 0.00 | 0.00 | 0.00 | 78 | 1010.8 |
| 20260509174555 | 83 | 221 | 3.5 | 5.2 | 0.00 | 0.00 | 0.00 | 78 | 1010.8 |
| 20260509174053 | 84 | 193 | 1.7 | 6.1 | 0.00 | 0.00 | 0.00 | 77 | 1010.9 |
| 20260509173552 | 83 | 217 | 2.6 | 6.1 | 0.00 | 0.00 | 0.00 | 79 | 1010.9 |
| 20260509173118 | 83 | 188 | 3.5 | 5.2 | 0.00 | 0.00 | 0.00 | 79 | 1011.0 |
| 20260509172556 | 83 | 207 | 2.6 | 3.5 | 0.00 | 0.00 | 0.00 | 79 | 1011.2 |
| 20260509172055 | 82 | 195 | 1.7 | 3.5 | 0.00 | 0.00 | 0.00 | 78 | 1011.3 |
| 20260509171553 | 82 | 124 | 1.7 | 4.3 | 0.00 | 0.00 | 0.00 | 81 | 1011.2 |
| 20260509171055 | 82 | 214 | 2.6 | 5.2 | 0.00 | 0.00 | 0.00 | 79 | 1011.2 |
| 20260509170556 | 82 | 212 | 1.7 | 5.2 | 0.00 | 0.00 | 0.00 | 80 | 1011.3 |
| 20260509170112 | 82 | 232 | 2.6 | 5.2 | 0.00 | 0.00 | 0.00 | 80 | 1011.4 |
| 20260509165556 | 82 | 147 | 1.7 | 3.5 | 0.00 | 0.00 | 0.00 | 79 | 1011.4 |
| 20260509165053 | 82 | 257 | 0.9 | 3.5 | 0.00 | 0.00 | 0.00 | 79 | 1011.4 |
| 20260509164602 | 82 | 223 | 0.9 | 3.5 | 0.00 | 0.00 | 0.00 | 80 | 1011.4 |
| 20260509164053 | 82 | 0 | 0.0 | 3.5 | 0.00 | 0.00 | 0.00 | 81 | 1011.3 |
| 20260509163554 | 81 | 224 | 1.7 | 3.5 | 0.00 | 0.00 | 0.00 | 82 | 1011.3 |
| 20260509163053 | 80 | 171 | 0.9 | 2.6 | 0.00 | 0.00 | 0.00 | 85 | 1011.2 |
| 20260509162553 | 80 | 274 | 0.9 | 2.6 | 0.00 | 0.00 | 0.00 | 84 | 1011.2 |
| 20260509162057 | 79 | 309 | 0.9 | 3.5 | 0.00 | 0.00 | 0.00 | 85 | 1011.1 |
| 20260509161556 | 79 | 308 | 0.9 | 5.2 | 0.00 | 0.00 | 0.00 | 86 | 1011.1 |
| 20260509161052 | 78 | 158 | 2.6 | 5.2 | 0.00 | 0.00 | 0.00 | 88 | 1011.0 |
| 20260509160553 | 78 | 224 | 1.7 | 4.3 | 0.00 | 0.00 | 0.00 | 90 | 1011.0 |
| 20260509160059 | 78 | 227 | 1.7 | 4.3 | 0.00 | 0.00 | 0.00 | 91 | 1010.9 |
| 20260509155552 | 77 | 220 | 0.0 | 3.5 | 0.00 | 0.00 | 0.00 | 93 | 1010.8 |
| 20260509155055 | 76 | 295 | 1.7 | 5.2 | 0.00 | 0.00 | 0.00 | 95 | 1011.0 |
| 20260509154552 | 76 | 262 | 1.7 | 5.2 | 0.00 | 0.00 | 0.00 | 96 | 1010.9 |
| 20260509154056 | 76 | 338 | 3.5 | 5.2 | 0.00 | 0.00 | 0.00 | 97 | 1011.0 |
| 20260509153556 | 76 | 321 | 2.6 | 5.2 | 0.00 | 0.00 | 0.00 | 97 | 1011.1 |
| 20260509153054 | 75 | 333 | 3.5 | 5.2 | 0.00 | 0.00 | 0.00 | 97 | 1011.1 |
| 20260509152552 | 75 | 324 | 3.5 | 5.2 | 0.00 | 0.00 | 0.00 | 97 | 1011.2 |
| 20260509152056 | 75 | 307 | 2.6 | 4.3 | 0.00 | 0.00 | 0.00 | 97 | 1011.2 |
| 20260509151616 | 75 | 299 | 2.6 | 4.3 | 0.00 | 0.00 | 0.00 | 97 | 1011.3 |
| 20260509151056 | 75 | 280 | 2.6 | 4.3 | 0.00 | 0.00 | 0.00 | 97 | 1011.3 |
| 20260509150556 | 75 | 305 | 1.7 | 4.3 | 0.00 | 0.00 | 0.00 | 97 | 1011.2 |
| 20260509150055 | 75 | 0 | 0.9 | 4.3 | 0.00 | 0.00 | 0.00 | 98 | 1011.1 |
| 20260509145553 | 74 | 295 | 2.6 | 4.3 | 0.00 | 0.00 | 0.00 | 97 | 1011.1 |
| 20260509145055 | 74 | 0 | 0.9 | 2.6 | 0.00 | 0.00 | 0.00 | 97 | 1011.0 |
| 20260509144558 | 74 | 0 | 0.0 | 2.6 | 0.00 | 0.00 | 0.00 | 97 | 1010.9 |
| 20260509144054 | 74 | 217 | 1.7 | 2.6 | 0.00 | 0.00 | 0.00 | 97 | 1011.0 |
| 20260509143553 | 74 | 158 | 1.7 | 2.6 | 0.00 | 0.00 | 0.00 | 97 | 1010.7 |
| 20260509143105 | 74 | 134 | 1.7 | 1.7 | 0.00 | 0.00 | 0.00 | 97 | 1010.8 |
| 20260509142556 | 74 | 0 | 0.0 | 0.0 | 0.00 | 0.00 | 0.00 | 98 | 1010.7 |
| 20260509142054 | 74 | 0 | 0.0 | 0.0 | 0.00 | 0.00 | 0.00 | 98 | 1010.6 |
| 20260509141554 | 74 | 0 | 0.0 | 0.0 | 0.00 | 0.00 | 0.00 | 98 | 1010.6 |
| 20260509141053 | 74 | 0 | 0.0 | 4.3 | 0.00 | 0.00 | 0.00 | 98 | 1010.5 |
| 20260509140556 | 74 | 0 | 1.7 | 4.3 | 0.00 | 0.00 | 0.00 | 98 | 1010.2 |
| 20260509140053 | 74 | 115 | 1.7 | 2.6 | 0.00 | 0.00 | 0.00 | 98 | 1009.8 |
| 20260509135556 | 74 | 128 | 1.7 | 2.6 | 0.00 | 0.00 | 0.00 | 98 | 1009.8 |
| 20260509135058 | 73 | 115 | 1.7 | 5.2 | 0.00 | 0.00 | 0.00 | 98 | 1009.9 |
| 20260509134555 | 73 | 139 | 1.7 | 7.0 | 0.00 | 0.00 | 0.00 | 98 | 1010.0 |
| 20260509134054 | 73 | 146 | 4.3 | 7.0 | 0.00 | 0.00 | 0.00 | 98 | 1010.1 |
| 20260509133553 | 73 | 164 | 5.2 | 8.7 | 0.00 | 0.00 | 0.00 | 98 | 1010.3 |
| 20260509133058 | 74 | 195 | 5.2 | 8.7 | 0.00 | 0.00 | 0.00 | 98 | 1010.7 |
| 20260509132553 | 74 | 197 | 6.1 | 8.7 | 0.00 | 0.00 | 0.00 | 98 | 1010.8 |
| 20260509132052 | 74 | 174 | 5.2 | 8.7 | 0.00 | 0.00 | 0.00 | 98 | 1010.7 |
| 20260509131604 | 74 | 191 | 6.1 | 8.7 | 0.00 | 0.00 | 0.00 | 98 | 1011.1 |
| 20260509131052 | 73 | 165 | 5.2 | 8.7 | 0.00 | 0.00 | 0.00 | 98 | 1011.1 |
| 20260509130555 | 73 | 162 | 6.1 | 8.7 | 0.00 | 0.00 | 0.00 | 98 | 1010.9 |
| 20260509130126 | 73 | 149 | 5.2 | 8.7 | 0.00 | 0.00 | 0.00 | 98 | 1010.6 |
| 20260509125556 | 73 | 151 | 4.3 | 6.1 | 0.00 | 0.00 | 0.00 | 98 | 1010.7 |
| 20260509125052 | 73 | 167 | 4.3 | 5.2 | 0.00 | 0.00 | 0.00 | 98 | 1010.8 |
| 20260509124553 | 73 | 150 | 3.5 | 4.3 | 0.00 | 0.00 | 0.00 | 98 | 1010.9 |
| 20260509124055 | 73 | 160 | 0.9 | 2.6 | 0.00 | 0.00 | 0.00 | 98 | 1011.2 |
| 20260509123557 | 73 | 0 | 0.0 | 2.6 | 0.00 | 0.00 | 0.00 | 98 | 1011.4 |
| 20260509123119 | 73 | 83 | 1.7 | 2.6 | 0.00 | 0.00 | 0.00 | 98 | 1011.3 |
| 20260509122556 | 73 | 53 | 0.0 | 2.6 | 0.00 | 0.00 | 0.00 | 98 | 1011.3 |
| 20260509122055 | 73 | 72 | 1.7 | 2.6 | 0.00 | 0.00 | 0.00 | 98 | 1011.3 |
| 20260509121554 | 73 | 58 | 1.7 | 3.5 | 0.00 | 0.00 | 0.00 | 97 | 1011.1 |
| 20260509121056 | 73 | 41 | 2.6 | 3.5 | 0.00 | 0.00 | 0.00 | 97 | 1011.2 |